Theta_e
340 342 343 342 340 340 340 341 343 345 345 344 345 345 345 344 345 345 344 344 343 342 341 340 340 340 340 340 340 340 339 338 336 337 337 336 335 335 337 338 339 339 338 339 338 337 337 337 336 334 333 332 331 332 332 333 334 336 336 336 336 336 335 334 335 335 336 336 336 335 334 334 334 333 331 330 330 331 333 333 334 334 334 334 334
342 342 344 344 343 343 344 345 345 345 345 345 345 345 345 344 345 345 345 344 344 343 342 342 341 341 340 340 341 340 339 339 336 337 338 337 335 334 337 339 339 339 339 339 338 337 338 338 337 335 334 333 332 332 331 331 331 331 332 333 334 334 334 334 334 335 335 336 335 335 334 334 334 333 333 333 333 333 333 333 334 334 334 335 334
345 344 343 344 345 345 345 345 346 346 345 345 345 344 344 344 344 344 345 344 345 344 343 343 342 341 341 340 340 338 338 338 336 337 339 338 336 333 334 338 339 339 339 339 339 338 339 339 338 336 335 334 333 333 332 332 331 331 332 332 333 333 333 333 333 333 333 333 334 333 333 333 334 334 334 334 334 334 334 334 334 334 334 335 334
347 345 344 344 345 345 345 345 346 346 345 345 344 343 342 342 343 344 345 344 345 344 344 343 343 342 341 340 339 337 337 337 336 338 339 338 335 330 332 335 337 339 340 340 339 339 339 340 340 338 336 336 335 334 333 333 332 331 332 332 332 332 332 332 331 331 331 332 332 332 333 334 334 334 334 334 334 334 334 334 334 334 334 334 333
346 346 346 345 344 345 345 345 345 346 345 343 343 343 343 342 343 345 345 344 344 344 344 343 343 342 340 339 338 336 335 336 338 339 338 337 333 328 330 332 334 337 340 340 340 339 339 339 340 340 338 337 337 337 336 335 334 334 333 332 332 332 332 331 331 331 331 332 332 332 333 333 333 333 334 334 333 334 334 334 334 334 334 334 334
346 347 347 345 343 345 346 345 345 345 344 343 343 344 346 345 345 345 345 345 345 344 344 343 343 341 340 339 337 336 335 336 338 338 338 337 333 330 330 331 332 335 336 338 339 339 339 339 339 339 340 339 338 338 338 337 336 336 336 335 335 335 334 334 334 334 333 334 334 334 334 333 333 334 334 334 335 336 336 336 336 336 336 336 337
346 347 346 345 344 344 345 345 345 345 343 344 346 344 345 347 346 346 346 345 344 344 344 343 342 341 340 339 336 334 335 336 338 338 338 338 336 335 334 332 333 334 334 335 336 337 338 340 339 339 339 339 339 339 339 338 338 338 338 337 337 337 337 337 337 337 336 336 336 336 336 336 337 337 337 337 337 337 337 337 337 337 337 337 337
342 345 346 344 344 344 344 344 346 345 343 345 347 345 346 346 346 346 345 344 343 342 343 343 342 341 340 338 335 333 334 337 338 337 338 339 339 339 337 336 336 336 335 334 334 335 336 338 339 339 340 339 339 339 339 339 339 339 339 339 339 338 338 338 338 338 338 338 337 337 338 338 338 338 338 338 338 337 338 338 337 337 337 337 337
339 341 342 342 343 344 343 344 346 345 344 346 347 347 346 344 345 345 343 342 341 340 341 342 341 339 338 337 336 335 336 338 338 338 339 340 340 340 340 339 339 339 339 337 336 335 334 337 337 338 339 340 339 338 339 339 340 340 341 341 341 341 340 340 339 339 339 338 338 338 338 338 338 338 338 339 338 338 337 337 337 338 337 337 337
337 337 338 338 341 344 344 344 346 346 345 346 346 347 347 344 344 344 341 340 341 339 340 341 340 338 336 336 337 338 338 338 338 338 341 341 340 340 340 340 340 340 340 339 338 336 334 335 336 337 338 339 340 339 339 340 341 341 341 341 341 341 341 341 340 340 340 339 339 339 339 338 338 338 338 339 338 338 338 338 338 338 337 337 337
339 336 336 336 339 343 344 345 346 346 346 346 345 345 346 345 344 344 342 340 340 340 340 341 341 340 338 337 337 338 338 338 338 340 342 342 341 340 339 338 338 339 340 339 339 337 335 334 334 336 337 338 338 339 340 340 340 341 341 341 341 341 341 340 340 340 340 340 339 339 339 339 339 339 338 338 339 339 339 338 338 337 337 336 335
340 337 336 336 338 341 344 345 346 348 347 347 346 344 346 347 345 343 343 342 340 340 340 340 340 339 338 337 338 338 338 338 339 339 340 341 339 338 337 336 335 336 336 336 337 338 336 335 333 333 334 335 336 337 338 339 339 339 340 340 340 340 341 340 340 340 339 340 340 340 339 339 339 339 339 339 339 338 338 337 336 334 332 328 326
340 338 336 336 337 339 343 345 346 348 347 347 345 344 346 347 345 343 343 343 341 340 340 339 339 338 337 338 340 339 339 340 340 339 339 339 339 338 338 337 336 336 335 332 334 337 337 337 335 334 334 335 335 334 335 336 336 337 337 338 339 340 340 340 340 340 339 340 340 339 339 339 339 339 338 337 337 335 334 332 330 326 322 319 318
339 338 336 336 337 338 340 342 345 347 348 347 344 343 345 346 345 344 343 343 342 341 340 339 339 338 337 339 340 340 340 341 341 341 340 340 340 339 339 338 336 336 333 330 331 334 334 334 335 335 336 336 335 335 334 334 334 334 335 335 336 337 338 339 339 339 339 339 339 338 338 337 337 336 336 334 332 329 325 323 320 318 316 315 315
340 338 337 336 336 337 338 340 343 345 346 346 344 343 343 345 346 344 343 341 342 342 341 339 339 338 338 339 339 339 340 340 341 341 341 340 340 339 339 338 337 335 332 329 329 328 328 328 328 329 330 331 333 334 334 335 334 333 333 332 331 332 335 336 337 338 338 338 337 336 335 335 334 333 331 328 324 321 318 317 316 315 315 317 318
342 339 337 335 336 337 338 339 340 343 345 345 345 344 343 344 345 344 343 341 340 341 339 338 338 337 338 339 339 339 339 339 340 341 341 340 340 340 340 338 338 337 335 333 331 328 327 327 326 325 325 326 328 328 330 334 334 331 330 329 327 326 328 330 331 334 334 333 334 333 332 331 329 327 324 321 318 316 316 316 317 318 319 320 320
344 341 338 337 336 336 337 338 339 341 344 344 344 345 344 343 344 344 343 342 340 339 337 337 338 337 337 338 338 339 338 337 340 341 341 341 340 340 340 339 337 338 338 336 334 330 331 332 329 329 328 326 326 325 326 329 329 328 327 326 324 323 322 322 323 326 326 325 327 326 325 324 322 320 318 316 316 317 318 319 320 320 320 320 320
346 344 341 339 337 336 337 338 338 340 343 345 344 345 344 342 343 342 343 343 340 337 337 338 339 339 337 336 336 337 337 336 338 341 341 341 341 340 340 339 338 338 338 337 335 333 334 336 334 332 330 328 326 325 325 326 326 325 325 324 323 322 321 320 320 320 319 320 320 319 319 318 317 317 316 317 319 320 321 320 320 320 320 321 322
346 345 343 341 338 337 337 338 338 339 343 344 344 344 344 342 342 342 342 344 342 339 340 340 340 340 337 335 336 338 338 337 337 339 341 341 340 341 340 339 339 339 337 337 336 335 335 337 336 334 332 329 327 327 326 326 326 325 324 323 323 322 321 321 320 320 319 318 317 317 317 317 317 318 319 321 321 320 320 319 320 321 322 323 323
346 344 344 342 340 338 338 338 338 339 341 344 344 344 344 342 342 342 342 343 343 342 341 339 340 340 337 335 337 339 340 339 338 337 339 340 340 340 340 339 339 338 339 338 338 337 336 336 337 337 335 332 331 331 330 328 327 326 324 323 323 322 322 322 321 321 321 320 318 318 318 319 320 321 321 321 320 320 320 321 322 323 324 323 323
345 344 343 343 340 338 338 338 338 339 342 343 344 344 344 343 342 342 342 344 343 343 341 340 339 339 338 336 337 340 341 340 339 337 338 339 339 339 339 339 339 339 339 339 339 338 337 337 337 337 337 335 333 334 333 330 327 326 325 325 324 323 323 322 321 322 322 321 320 320 321 322 322 321 320 320 320 321 322 323 323 324 323 323 322
343 343 343 343 341 338 338 338 337 339 341 342 343 344 344 344 343 343 343 345 345 344 343 343 342 339 338 337 337 340 341 341 340 338 338 339 338 338 338 339 339 338 339 339 339 339 338 338 338 338 337 337 336 335 334 332 329 327 327 327 326 324 323 322 320 321 322 322 322 322 322 322 321 321 321 322 322 323 324 324 324 323 322 321 321
341 341 341 342 341 339 337 338 338 337 339 342 343 343 344 344 344 344 345 345 346 344 343 344 343 340 338 338 337 338 339 341 340 337 337 339 339 338 338 338 338 338 339 339 339 339 339 338 338 337 337 337 336 335 335 334 332 331 330 329 328 326 324 323 320 320 321 322 322 322 322 322 322 323 323 324 324 324 324 324 323 322 322 322 322
340 340 338 339 339 338 337 337 338 337 338 341 342 343 343 343 344 344 345 345 346 346 345 344 343 342 340 340 339 337 337 339 340 338 336 338 339 338 338 338 339 339 339 339 340 339 340 339 338 337 337 337 337 335 335 335 334 333 333 332 332 330 328 325 322 320 320 321 321 322 323 323 324 324 324 324 324 324 324 323 323 323 323 323 323
339 338 336 336 337 336 336 335 337 337 338 339 341 343 343 344 343 343 344 344 345 346 345 344 344 342 341 341 341 337 335 337 340 340 339 339 339 339 338 338 338 339 339 339 340 340 339 339 338 338 337 337 337 335 335 335 335 334 334 333 332 332 330 329 326 323 320 321 322 323 324 324 324 324 324 324 324 323 324 324 324 325 324 324 324
337 335 335 335 335 335 334 334 335 337 337 337 339 343 343 343 343 343 343 343 344 345 346 345 344 343 341 341 341 338 334 335 338 340 339 339 339 339 338 338 339 339 340 340 340 339 339 338 338 337 336 336 335 335 335 335 335 335 335 334 333 332 331 330 329 328 325 322 322 323 324 324 324 324 323 323 323 324 324 324 324 325 325 325 325
335 335 335 335 334 334 334 334 335 337 337 337 338 342 343 342 342 342 343 343 345 345 345 345 344 343 341 340 339 338 336 335 336 338 338 337 338 338 338 338 339 339 340 340 340 339 339 338 339 338 337 336 335 335 335 335 336 336 335 335 334 333 332 330 330 330 329 327 324 323 323 323 324 324 323 323 324 324 324 324 324 324 324 324 325
335 335 335 335 334 334 334 334 336 338 338 337 337 339 342 342 341 342 342 343 344 345 344 344 344 344 343 341 339 338 337 337 337 338 338 336 336 337 337 339 339 340 339 339 339 338 337 338 338 338 337 336 336 335 335 335 336 336 336 336 335 335 333 332 330 329 329 329 327 326 324 324 324 324 323 323 323 323 324 324 324 323 323 324 325
336 335 335 334 333 334 334 334 335 337 338 337 337 337 339 340 341 341 342 342 342 343 343 344 345 345 344 343 340 337 336 337 336 335 334 333 334 337 338 339 340 340 340 340 339 337 336 336 336 336 336 335 335 335 335 335 335 336 336 336 336 336 335 334 332 329 327 327 328 327 326 326 326 325 325 324 323 323 324 324 324 324 323 324 325
336 336 336 334 332 333 334 335 335 336 337 338 337 336 337 338 339 340 341 342 342 342 342 343 344 346 346 344 342 339 336 336 335 333 330 330 333 336 338 340 340 340 340 341 339 337 336 335 334 335 335 335 335 334 334 334 335 336 336 336 336 335 335 335 334 331 328 326 326 326 326 326 327 327 327 326 325 325 325 325 325 324 324 324 325
337 337 337 334 332 333 334 334 335 335 335 337 337 337 336 336 338 338 339 341 341 341 342 342 343 344 345 345 344 341 338 337 336 333 331 332 334 336 339 340 340 340 341 340 340 337 335 334 332 332 333 334 335 334 334 334 335 336 336 336 335 335 335 335 335 333 329 326 325 325 325 325 326 326 327 327 327 327 326 326 326 324 324 325 326
337 336 337 335 333 332 333 333 335 335 335 336 337 338 338 338 338 338 339 339 340 339 340 340 341 342 344 344 344 343 341 339 337 335 334 333 335 337 338 339 340 340 340 340 340 336 333 334 333 332 332 333 334 334 333 333 334 335 335 335 335 335 335 335 334 332 328 326 325 324 325 325 325 325 326 327 327 326 326 326 325 325 325 326 327
336 335 335 335 332 331 332 333 333 333 333 334 335 337 337 338 338 339 339 339 339 339 338 339 339 340 341 342 342 343 343 342 339 338 336 334 334 336 338 339 339 340 340 340 339 336 332 332 332 331 331 331 331 331 332 332 333 333 334 335 334 335 335 334 334 331 327 325 325 324 325 325 325 325 325 326 326 326 326 326 325 326 326 327 329
336 335 333 332 331 330 331 333 333 332 332 333 333 334 335 336 337 338 337 337 337 337 337 338 338 338 339 339 340 341 342 343 342 341 339 337 335 333 335 337 338 338 340 340 340 338 333 330 330 331 331 330 329 329 329 330 331 332 333 333 333 333 333 333 333 331 328 325 325 325 325 325 326 326 326 326 326 327 327 327 327 327 327 328 329
335 334 332 332 331 330 330 332 333 333 332 332 332 333 334 334 335 335 335 335 335 335 336 335 335 336 337 337 338 339 340 342 342 341 341 340 338 335 333 334 335 336 338 340 340 339 335 331 330 330 330 330 329 328 328 328 329 331 332 332 333 332 332 333 332 331 330 328 326 326 326 325 326 327 327 327 327 328 329 329 328 328 329 330 329
333 332 331 332 331 331 331 331 332 333 333 332 332 332 333 333 334 334 333 334 334 333 333 333 333 335 335 336 336 337 338 340 340 341 341 341 341 339 336 333 333 333 335 338 339 339 337 335 331 329 330 330 329 328 327 327 327 328 330 331 331 331 331 331 331 330 330 330 328 327 326 326 326 328 328 329 329 329 329 330 330 330 331 331 331
332 331 331 331 331 331 331 330 331 333 333 332 332 331 332 332 333 333 332 333 333 332 333 332 333 333 333 333 334 335 336 337 338 339 341 341 341 340 340 338 335 333 333 334 335 337 338 336 332 328 329 330 329 328 328 327 327 326 328 329 329 329 330 330 330 330 330 330 329 328 327 327 327 328 328 329 329 329 329 330 331 331 332 332 332
332 331 330 330 330 330 330 330 330 331 332 332 331 331 331 331 332 332 332 332 332 332 333 333 333 333 333 333 333 334 335 334 335 336 337 339 340 340 340 340 339 337 335 334 334 335 335 334 332 331 329 328 328 327 327 327 327 326 326 327 327 327 328 329 329 329 329 330 329 328 328 328 327 327 328 329 329 329 329 329 330 331 332 333 333
332 332 331 331 331 330 330 330 330 330 331 332 331 331 331 331 331 332 332 332 332 333 333 334 334 334 334 333 333 334 333 334 333 334 335 336 337 338 339 340 340 340 339 337 336 335 335 335 334 333 331 330 329 328 327 328 328 327 326 326 326 326 327 327 328 328 329 330 330 329 328 328 328 328 328 328 329 329 329 329 329 331 333 333 334
333 332 332 331 330 330 330 330 329 330 330 331 331 331 331 331 331 331 331 332 332 333 333 334 334 335 334 334 334 334 334 334 334 334 334 335 335 336 336 337 339 340 341 341 340 338 338 337 336 336 334 334 332 330 329 328 328 327 326 326 326 326 326 327 327 327 328 329 330 329 329 328 328 328 328 328 329 329 329 329 329 331 332 333 334
333 332 331 331 331 331 331 330 330 330 330 330 331 330 330 331 331 331 331 332 332 332 333 333 334 334 334 334 334 334 334 334 334 335 335 335 335 336 335 335 336 338 339 340 342 342 341 340 339 338 337 337 336 335 334 332 330 327 326 325 325 325 325 326 326 326 327 328 328 330 330 329 329 328 328 328 329 330 330 330 330 330 332 333 334
336 334 333 333 332 332 331 331 331 330 330 330 330 330 330 330 331 332 332 332 333 333 334 334 334 333 334 334 334 335 335 337 336 336 336 336 336 337 336 336 337 337 338 339 341 342 344 343 343 342 341 341 339 339 338 337 336 334 331 328 326 325 325 326 326 326 326 327 328 329 330 329 329 329 329 329 330 330 330 330 330 330 331 333 334
339 336 335 334 334 333 332 332 331 331 331 331 330 330 331 331 332 332 332 332 333 334 335 336 335 335 335 336 336 337 338 338 338 339 338 339 339 339 339 339 339 339 339 339 340 341 343 343 344 344 344 343 342 342 342 341 340 339 338 336 333 329 327 327 326 325 325 326 326 328 328 329 330 330 329 329 330 331 331 332 331 331 331 333 334
343 339 338 336 335 334 334 333 332 332 332 331 332 332 331 332 332 333 334 334 335 336 337 337 337 337 338 339 340 340 341 341 341 342 342 342 342 342 342 342 342 342 343 342 342 343 343 343 343 344 345 345 344 343 342 342 341 342 342 342 340 337 334 332 329 328 328 327 326 327 327 327 329 330 329 329 330 331 332 332 332 332 332 333 334
346 344 340 338 337 336 336 335 335 334 333 333 332 332 332 332 333 334 335 336 338 338 339 339 340 340 341 342 343 343 344 344 345 345 345 345 345 346 345 345 345 345 346 345 345 346 346 346 346 346 346 345 344 343 341 341 342 344 344 344 343 342 341 339 337 336 335 332 329 329 328 327 328 329 329 329 330 331 332 333 333 333 333 333 333
349 347 344 341 339 337 337 336 336 336 335 334 334 334 333 333 334 335 337 338 340 341 341 342 342 343 343 345 346 345 345 346 347 347 347 348 348 348 348 348 348 348 348 349 349 349 349 348 349 348 347 347 346 345 344 344 345 346 346 345 345 345 344 343 343 341 339 336 334 333 331 330 330 330 330 328 329 330 331 333 334 333 333 333 333
353 351 349 346 342 339 338 337 338 337 336 335 335 334 334 335 335 338 340 341 342 343 344 344 345 346 346 347 348 348 348 348 349 349 349 350 350 351 351 351 350 351 352 352 352 352 352 352 352 351 350 350 350 349 349 349 348 348 348 348 347 346 346 345 344 342 340 339 338 336 334 334 333 332 331 329 328 329 330 332 334 334 334 334 333
357 355 354 350 346 342 340 339 339 338 336 335 336 336 335 337 339 341 342 343 344 344 344 345 346 347 347 348 349 349 349 350 350 350 351 352 352 353 352 353 353 354 354 354 355 355 355 355 354 354 354 354 353 353 353 352 351 351 351 350 348 347 346 345 345 344 342 340 340 338 337 337 336 335 333 331 330 329 329 332 334 334 334 334 334
360 358 357 354 351 347 344 340 340 339 336 335 337 337 338 340 342 343 344 344 345 345 345 346 347 348 348 349 350 351 351 352 352 352 353 354 354 354 354 354 355 356 356 356 356 357 357 356 356 356 356 356 355 354 354 354 353 354 351 350 350 348 346 344 345 345 342 341 343 342 339 340 340 338 336 334 331 329 329 330 333 334 334 334 334
361 360 359 357 355 352 349 346 343 342 340 338 338 339 339 341 343 344 345 346 347 346 347 348 349 349 350 350 352 352 353 353 354 354 355 355 355 356 356 357 357 358 357 358 357 358 358 358 358 357 357 357 356 356 356 355 355 354 352 352 352 350 347 345 345 344 340 341 346 344 340 340 342 340 339 336 333 331 328 329 333 334 334 334 333
362 361 361 359 358 356 355 352 350 349 346 345 344 343 342 343 344 345 347 348 348 348 349 350 350 350 351 352 353 354 354 355 355 356 356 357 357 357 358 358 359 358 358 359 358 359 358 358 358 358 357 357 357 357 356 356 355 355 354 354 353 350 347 346 347 344 340 342 348 346 339 339 341 340 339 337 335 333 329 329 332 334 334 334 334
Wind_Speed
7 5 5 6 7 7 6 6 5 5 5 5 4 4 4 5 6 6 6 7 9 9 9 7 6 5 4 3 3 4 3 2 3 2 2 2 2 4 6 6 6 6 5 5 5 4 4 4 3 3 4 4 4 4 5 5 4 5 4 4 4 3 3 2 2 1 1 1 2 2 3 3 3 4 4 4 3 4 4 5 5 6 7 7 7
6 5 5 6 6 7 6 6 6 5 5 5 4 4 5 4 5 5 5 7 9 10 10 8 6 5 4 3 1 3 3 1 1 2 2 1 1 3 6 6 6 6 6 5 5 5 5 5 4 3 4 4 4 3 4 4 4 4 4 3 3 3 3 2 2 2 2 3 3 3 3 3 3 3 4 4 4 5 5 5 6 7 7 8 8
6 5 6 6 6 7 7 7 7 6 6 5 4 3 4 4 4 5 6 7 9 11 10 8 7 5 4 3 1 3 2 0 0 1 2 2 1 3 5 6 6 5 6 6 5 5 5 5 5 4 4 4 4 4 3 3 3 3 3 3 3 3 3 3 3 3 4 4 4 4 4 3 4 4 4 5 5 5 6 6 7 7 8 8 9
6 5 5 5 5 7 6 7 7 5 5 4 4 4 3 4 5 5 6 8 9 10 9 8 7 5 4 2 2 3 1 1 1 1 2 2 1 2 4 5 5 5 5 5 5 5 5 5 5 4 4 4 4 4 4 4 3 3 4 4 4 4 5 5 5 4 4 4 4 4 4 4 4 4 5 5 6 6 6 7 7 7 8 9 9
6 5 5 4 5 6 5 7 6 5 5 4 4 4 4 5 5 5 7 9 9 9 9 8 6 5 4 3 3 3 2 4 3 1 1 1 1 2 3 3 4 4 4 5 5 5 6 6 5 5 5 5 5 5 5 5 4 4 4 4 4 5 5 5 5 5 5 5 5 5 5 5 5 5 5 6 6 7 7 7 7 8 8 9 9
6 5 5 5 6 6 6 6 5 5 5 5 5 5 6 6 6 6 7 8 8 9 9 7 6 5 4 3 2 2 4 4 4 2 1 0 2 3 4 3 2 2 3 4 5 5 6 6 6 6 5 5 5 5 5 5 5 5 5 5 5 5 5 5 5 5 5 5 5 5 5 5 5 5 6 6 7 7 8 8 8 9 9 10 10
6 6 6 6 6 6 6 6 6 6 6 6 6 6 7 7 7 6 6 6 6 7 8 7 6 5 3 2 1 2 4 5 4 3 2 0 3 4 4 3 2 1 1 2 4 5 5 6 6 6 6 5 5 5 5 6 6 6 6 6 6 6 7 6 6 6 6 6 6 6 6 6 6 6 7 7 8 8 9 9 9 10 10 10 11
7 6 6 5 6 6 6 6 7 7 7 7 6 6 6 6 6 6 6 5 5 7 8 7 5 4 3 2 2 3 4 5 4 4 3 2 3 4 4 3 2 1 1 1 2 4 5 6 6 5 6 6 6 6 6 6 6 6 7 6 6 7 8 7 7 7 7 7 7 7 7 8 8 9 9 9 9 9 10 11 11 11 11 11 12
9 8 7 6 5 6 7 7 7 7 7 7 7 6 5 5 5 6 7 6 6 8 9 8 5 3 3 4 4 5 4 4 4 4 3 3 4 3 3 3 2 1 1 1 0 2 4 5 6 6 6 6 6 6 6 6 7 8 8 8 8 8 8 8 9 9 8 8 8 9 9 9 10 10 10 10 10 11 11 11 11 11 12 12 12
9 9 10 8 6 7 8 8 8 7 7 7 7 6 4 4 5 5 8 8 8 10 9 8 6 3 4 5 6 5 5 4 4 3 4 4 4 4 3 3 2 2 2 1 1 2 3 5 6 6 7 7 7 6 6 7 8 9 8 8 9 10 9 9 10 10 10 10 10 10 10 10 10 11 11 11 11 11 11 11 12 12 11 12 11
9 10 11 11 9 9 9 9 8 8 7 6 7 6 4 4 4 6 8 9 9 9 8 7 5 3 2 4 5 4 4 4 3 3 5 5 5 4 4 3 3 3 2 1 1 2 2 4 5 6 6 7 7 7 7 8 8 9 9 9 10 10 10 10 11 11 11 11 11 11 11 11 11 11 11 11 11 11 11 10 10 9 9 9 8
11 11 12 12 11 10 9 9 8 8 7 6 6 6 5 4 4 5 8 9 9 9 8 6 5 3 3 4 4 4 4 3 2 4 6 6 6 5 5 5 4 3 2 1 0 1 2 2 3 4 5 5 6 7 7 8 8 9 9 9 10 10 10 10 11 10 10 10 10 10 11 11 11 11 10 10 10 9 8 7 7 6 6 6 6
12 12 12 12 12 12 10 9 8 8 7 7 7 7 7 6 6 6 6 9 10 9 8 6 5 5 6 7 5 4 3 3 3 5 7 6 6 5 5 5 4 4 4 2 1 1 1 1 2 3 3 4 5 6 7 7 8 8 9 9 10 10 10 10 10 10 10 10 9 9 9 9 8 8 8 7 6 6 5 5 5 5 5 5 5
14 13 13 13 13 12 10 9 9 9 8 8 8 8 8 8 7 7 7 9 11 10 9 7 7 7 8 8 7 4 3 2 3 5 6 5 4 3 2 3 3 5 5 3 2 1 1 1 1 2 3 4 5 5 6 6 7 7 7 8 9 10 9 9 9 9 9 9 8 8 7 7 6 5 5 4 4 4 4 4 4 4 4 4 5
15 15 14 14 13 12 11 10 10 10 10 10 9 8 9 8 7 7 8 10 12 11 9 8 8 8 9 8 8 6 5 4 4 5 6 6 4 2 1 1 1 4 5 4 3 2 2 3 2 2 3 4 5 5 6 6 6 6 7 7 8 9 8 8 9 8 8 7 7 6 5 5 4 4 4 4 4 4 3 3 3 3 3 4 5
16 16 15 14 13 12 12 11 11 10 10 10 9 8 8 8 7 8 8 10 13 12 10 10 10 9 10 10 8 8 7 6 5 5 5 6 5 3 3 3 3 2 4 4 3 3 3 3 2 2 3 4 5 5 5 6 6 6 7 8 8 8 8 8 8 7 7 6 5 4 4 4 4 4 4 4 3 3 2 1 1 2 3 4 5
16 16 15 14 13 13 13 13 13 12 11 10 9 8 8 8 8 8 8 9 12 13 12 12 10 9 11 10 8 9 9 7 7 7 7 7 6 5 4 5 5 5 5 4 2 2 3 4 3 3 3 4 4 4 5 5 6 7 7 8 8 8 8 7 6 6 5 5 5 4 5 5 4 4 4 3 2 1 1 0 1 1 2 3 4
16 15 14 14 14 14 14 14 14 13 11 10 10 9 9 8 8 9 8 9 11 13 13 12 9 8 11 12 9 7 8 9 10 9 9 10 9 7 6 6 6 6 6 5 2 1 1 3 4 4 3 3 4 4 4 5 5 6 6 7 8 8 7 7 6 5 4 4 4 4 4 4 4 4 3 3 3 2 2 1 1 1 2 2 3
17 15 14 14 14 14 14 14 14 13 13 12 10 10 9 9 9 9 9 9 12 14 14 13 11 10 11 12 11 9 8 9 11 10 10 12 11 9 8 7 7 6 5 4 3 1 2 2 3 4 4 2 2 3 3 4 4 4 5 5 6 6 6 5 5 4 4 3 4 4 4 4 4 4 4 4 3 3 3 2 2 1 1 2 3
19 17 15 14 15 15 15 15 15 14 14 13 11 10 10 10 10 10 10 11 12 13 13 13 13 12 12 13 12 11 10 10 10 10 11 12 11 10 9 9 9 8 6 4 3 2 3 3 3 3 3 3 2 2 2 4 4 4 4 4 5 5 5 5 4 4 4 4 5 5 5 6 5 5 5 4 4 4 3 2 2 2 2 3 4
20 18 17 15 16 16 16 15 15 14 14 14 12 11 11 11 11 11 11 12 13 13 13 13 12 11 12 12 12 12 11 10 11 12 11 10 10 11 11 11 11 9 8 7 6 5 5 5 5 5 3 3 3 4 3 2 4 4 4 4 4 4 5 5 5 5 5 5 6 6 6 7 6 6 5 5 5 4 4 3 3 3 3 4 5
20 19 17 16 16 17 17 17 16 15 15 15 14 14 13 12 12 12 12 13 14 14 14 14 12 11 12 12 12 13 13 12 12 14 14 12 12 11 11 12 11 8 7 7 7 8 8 7 7 7 6 5 5 5 5 2 2 3 4 4 4 5 5 5 6 6 6 7 7 7 7 7 7 6 6 5 5 5 5 4 4 4 5 5 6
21 19 18 16 16 17 18 18 17 17 16 16 15 15 14 13 13 13 13 13 13 14 15 15 13 13 13 13 12 14 15 15 13 13 14 14 14 12 12 12 12 11 9 9 9 10 11 10 10 9 8 7 7 6 5 4 2 2 3 4 4 5 5 6 6 6 7 7 8 8 8 8 7 7 7 6 6 6 5 5 5 6 6 7 8
23 22 20 18 17 18 19 19 19 18 17 16 16 15 14 14 14 14 13 13 13 14 14 15 15 14 14 14 13 14 16 17 14 13 13 14 14 14 12 12 13 13 12 12 13 13 13 13 12 10 9 9 8 6 5 5 3 3 3 4 4 5 5 6 7 7 8 8 9 9 8 8 8 8 8 7 7 7 6 7 7 8 9 9 10
26 24 22 20 19 19 21 21 20 19 18 17 16 16 15 15 15 14 14 14 13 14 14 15 15 15 15 14 14 14 17 18 16 14 13 14 15 15 13 13 14 13 13 14 15 15 15 14 13 11 10 10 9 8 7 6 5 5 5 5 6 6 6 6 7 7 8 9 9 9 9 9 9 9 9 9 8 8 8 9 9 10 11 12 13
26 24 22 21 20 20 21 21 20 20 19 18 17 17 17 17 16 16 15 14 14 15 14 14 15 15 16 16 15 14 15 17 17 17 16 15 16 16 14 14 14 14 14 15 16 17 16 13 12 11 11 10 9 9 8 7 7 7 7 7 7 7 7 7 8 8 9 10 11 11 11 11 11 11 11 11 11 11 11 10 11 11 12 14 15
26 23 22 21 20 21 22 21 20 20 20 19 18 18 19 19 18 18 17 16 15 16 15 14 15 15 16 17 16 16 15 16 17 18 18 17 16 15 14 13 14 15 15 15 16 17 16 14 14 13 12 11 10 10 10 9 10 10 11 11 10 9 9 9 9 10 11 12 12 12 12 12 13 13 14 14 14 14 13 13 13 13 14 15 17
27 25 23 22 21 21 22 22 21 20 20 20 20 19 20 20 20 19 18 17 17 17 16 15 15 16 16 17 17 17 16 16 17 17 17 17 16 16 15 14 14 15 16 17 18 18 15 15 16 14 13 12 12 12 12 12 11 12 14 14 13 12 11 12 12 12 12 13 14 14 14 14 14 15 16 17 17 17 16 16 15 15 16 17 18
29 26 23 21 21 21 22 23 22 21 21 21 21 21 21 21 21 20 19 18 18 18 17 16 16 16 16 17 17 17 16 17 17 16 17 17 17 18 17 15 14 16 17 18 20 18 15 15 15 13 12 12 12 13 14 13 12 13 15 16 15 14 14 14 14 14 13 13 14 15 15 15 16 17 18 19 19 18 18 17 17 17 17 18 19
31 28 25 22 21 20 22 22 22 22 22 22 22 22 23 23 22 22 20 19 19 19 18 18 17 16 17 18 18 17 16 17 17 17 17 17 18 19 18 17 17 17 18 19 20 18 15 16 15 13 12 12 12 13 14 14 13 13 16 17 16 16 15 16 16 16 16 15 15 15 15 16 17 17 18 19 20 19 19 18 18 17 18 19 20
33 30 27 24 22 21 21 22 22 22 22 22 23 23 23 24 24 23 22 21 21 21 20 19 18 17 18 18 19 18 17 17 17 18 18 18 18 18 19 18 19 19 18 19 22 19 14 14 14 13 14 14 14 15 15 15 14 15 16 18 18 17 17 18 18 18 18 17 16 16 15 16 17 17 18 18 19 19 19 19 18 18 19 19 20
34 32 29 26 24 23 22 23 23 22 22 22 23 23 24 24 24 24 24 23 24 23 21 20 19 19 19 20 20 19 19 19 18 19 20 20 20 20 20 20 21 21 19 20 24 21 15 14 15 14 15 16 17 18 18 17 16 17 18 19 19 18 19 19 19 19 18 18 18 17 17 17 17 18 18 18 18 18 18 18 19 19 20 20 21
35 34 31 29 26 25 24 25 24 24 23 23 23 23 24 25 25 25 25 25 25 24 23 23 22 21 21 21 22 21 20 20 20 20 21 21 22 22 22 23 23 23 22 23 25 24 19 17 18 17 17 19 20 20 19 19 18 18 19 20 20 20 20 19 19 19 18 18 18 19 19 19 19 20 20 20 20 19 19 19 20 20 21 21 21
36 34 33 30 29 28 27 27 27 26 25 24 24 25 25 26 26 26 26 26 26 25 25 25 23 23 23 23 23 22 21 22 22 21 22 22 24 25 25 26 25 24 24 25 26 27 24 21 20 20 20 21 22 22 21 21 20 20 21 21 21 20 20 20 20 20 19 19 19 20 21 21 21 21 21 21 21 21 21 21 22 22 22 22 22
36 35 34 32 31 30 29 29 28 28 27 26 26 26 27 27 27 27 27 27 27 27 26 25 24 24 24 24 23 23 23 23 23 23 23 23 24 26 27 28 28 27 26 27 28 30 29 26 23 23 23 23 24 23 23 24 23 24 24 23 22 22 21 21 22 21 21 20 21 21 22 23 23 23 22 22 22 23 23 23 23 23 23 23 22
37 36 35 35 34 33 32 31 30 30 29 28 27 27 27 28 28 28 27 28 28 28 27 26 25 25 25 25 24 23 24 25 25 24 25 25 25 26 27 28 29 29 28 29 31 32 33 32 29 26 26 26 26 25 25 26 26 27 27 26 25 25 24 23 24 24 23 23 23 23 24 24 25 24 24 24 24 24 24 23 23 23 23 22 22
37 37 37 36 36 35 34 33 32 32 31 30 29 28 28 28 28 28 28 28 29 29 29 28 27 27 27 26 25 24 25 26 26 25 26 26 26 27 28 28 30 30 30 31 33 33 35 37 35 32 30 30 30 28 28 28 28 28 29 28 28 28 27 26 26 26 25 25 26 26 26 26 26 26 26 26 26 25 24 24 24 24 23 23 22
37 37 37 37 37 36 35 34 34 34 33 33 32 31 30 30 30 30 29 29 29 30 30 30 30 29 29 28 27 27 28 28 27 26 26 26 27 28 29 29 30 31 32 33 34 35 37 38 38 37 36 35 34 32 31 31 31 31 31 31 31 31 31 30 29 28 28 28 28 28 28 28 28 28 27 27 27 27 26 25 25 25 24 23 23
37 37 37 37 37 37 36 36 35 35 35 35 34 33 33 32 31 31 31 31 31 30 30 30 30 30 31 31 30 30 30 30 29 28 27 28 28 29 29 30 31 32 34 35 36 37 39 39 40 40 39 38 38 36 35 34 35 35 34 35 35 34 33 33 32 30 30 30 30 30 30 30 30 29 28 28 28 28 27 27 26 25 25 24 24
37 36 36 36 36 37 37 37 37 37 37 37 37 36 35 34 33 33 32 32 32 31 31 31 30 31 31 32 32 32 32 32 31 31 30 30 31 31 31 31 32 34 35 36 38 39 40 42 42 41 41 42 41 40 38 38 39 39 38 38 39 38 36 36 35 33 32 32 32 32 32 31 31 31 30 30 30 29 29 29 28 27 27 27 26
36 36 35 36 36 37 38 38 39 39 40 40 39 38 37 36 35 35 34 34 33 33 32 32 31 32 32 32 33 33 33 33 33 33 33 33 34 34 33 34 35 36 37 38 39 40 41 43 44 43 44 45 44 42 41 41 41 41 40 41 43 42 40 40 39 37 36 35 35 35 34 32 33 33 32 32 31 30 30 30 29 29 28 28 27
37 36 36 36 37 38 38 39 40 40 41 40 39 38 38 37 36 36 36 36 35 35 34 34 34 33 33 33 33 33 34 34 34 34 34 34 35 35 35 36 38 39 39 40 41 41 42 44 45 45 46 47 46 44 43 42 41 41 42 44 46 45 44 45 45 42 40 38 38 39 37 34 34 34 34 34 33 32 31 32 31 30 29 29 28
39 37 37 37 38 38 38 39 40 41 41 40 39 38 38 38 38 38 38 37 37 37 37 36 36 36 35 35 35 35 35 35 35 35 35 35 35 36 36 37 39 40 41 42 43 43 43 45 46 46 47 48 47 45 45 44 43 43 44 44 46 47 47 49 50 47 43 41 41 42 39 35 35 36 36 36 35 33 33 32 31 30 30 29 28
39 39 39 38 38 38 39 40 41 42 42 40 39 39 39 38 38 39 39 39 39 39 39 38 38 38 38 38 38 37 37 36 36 36 36 35 35 35 36 37 39 41 42 43 44 44 45 46 47 48 49 49 49 48 47 46 45 45 45 45 46 46 47 49 52 50 46 43 44 45 42 38 37 38 37 36 35 34 34 32 31 30 30 30 28
39 39 39 39 38 38 39 41 41 42 41 40 40 39 39 38 38 39 40 40 40 40 40 40 40 39 39 39 40 39 38 38 37 37 37 36 35 35 36 37 39 40 41 42 43 44 45 47 49 51 50 50 51 50 47 46 47 47 48 47 47 47 48 49 50 49 46 45 46 47 47 44 41 40 40 37 34 34 34 33 31 30 30 30 29
40 40 40 39 39 39 40 40 41 42 41 40 39 39 39 39 39 40 41 41 41 41 41 41 40 40 40 40 41 40 39 39 39 38 37 37 36 36 37 38 39 40 41 42 42 43 44 45 48 50 49 49 51 50 48 48 49 50 51 51 50 50 50 50 50 48 46 46 45 46 49 49 45 44 44 40 35 34 34 33 32 31 31 31 30
39 39 39 39 39 39 39 40 41 42 41 39 39 39 39 39 39 40 41 41 41 41 41 41 41 41 41 41 42 41 40 40 39 38 38 37 37 38 38 39 41 42 42 43 42 42 42 43 45 47 47 47 48 48 47 49 50 50 51 53 52 51 51 52 51 49 48 47 44 44 48 49 46 47 47 43 39 36 34 33 34 33 32 32 30
36 37 38 38 38 38 38 39 41 42 40 38 38 39 38 38 39 40 41 41 41 41 40 40 40 40 40 40 41 41 40 40 39 38 38 38 38 39 40 41 42 43 44 44 42 42 43 43 43 45 45 45 45 45 45 47 49 51 53 54 54 54 53 53 54 53 50 48 46 46 48 49 48 48 47 44 42 40 37 35 35 35 34 33 32
33 34 35 35 35 36 36 37 39 40 39 37 38 38 38 38 39 40 40 40 40 40 40 39 38 38 38 38 39 40 40 40 39 38 38 38 39 40 40 41 43 45 46 44 43 43 43 43 43 44 44 44 45 45 46 47 48 50 54 57 57 56 54 54 56 53 47 47 50 50 51 51 50 48 46 44 44 42 40 38 37 36 36 34 33
30 30 30 31 32 32 33 34 36 38 38 36 36 37 37 37 38 39 39 39 39 40 40 39 38 38 38 37 38 39 40 39 39 38 38 39 40 40 40 40 43 47 46 44 43 43 43 45 46 46 46 47 47 47 47 48 48 50 55 59 59 56 54 55 56 50 44 49 56 54 53 54 52 50 48 46 46 45 43 40 39 38 37 36 35
30 30 30 31 31 31 31 32 32 34 35 34 34 35 35 35 36 37 37 38 40 40 40 39 38 38 38 38 37 38 38 38 38 38 38 39 41 41 40 40 45 48 45 42 43 44 45 47 49 49 49 49 48 48 48 48 49 50 54 58 58 56 55 57 57 51 49 56 60 55 53 53 52 51 51 48 46 46 45 43 41 40 39 37 37
Wind_Direction
155 163 161 158 161 168 173 169 169 179 187 187 183 181 175 166 169 173 173 178 185 182 172 170 165 148 132 114 77 42 38 38 26 16 37 113 166 188 181 176 179 180 175 176 173 165 158 153 146 138 134 128 135 142 150 156 157 159 163 169 173 179 180 187 197 228 263 316 329 336 344 349 357 3 6 5 360 353 345 344 346 345 342 339 339
159 172 169 161 163 169 172 168 169 174 173 175 177 176 172 167 167 170 175 182 188 182 172 175 174 164 148 126 71 4 3 14 17 346 345 12 178 196 187 176 179 187 187 188 181 173 168 164 161 158 155 150 151 151 153 161 169 174 179 188 196 205 211 223 233 260 278 293 304 310 315 319 331 337 343 345 344 344 340 341 342 340 337 334 334
164 175 173 167 165 168 169 165 168 171 167 168 166 167 168 162 161 166 174 183 188 182 173 173 175 173 163 139 58 7 350 269 103 330 339 338 249 212 194 179 178 189 194 196 194 186 181 177 175 178 179 172 170 173 177 178 184 191 198 207 219 231 241 254 260 273 280 286 292 293 298 299 310 319 324 325 325 328 329 330 332 331 329 328 329
173 183 182 183 176 170 167 164 167 164 158 164 162 167 173 158 159 165 171 176 177 174 169 169 172 172 166 147 66 39 27 164 116 27 344 339 242 210 202 186 179 193 204 203 203 199 196 194 191 195 196 192 192 193 197 201 206 216 224 229 239 248 255 265 269 276 280 283 286 286 288 289 296 306 310 314 316 320 321 321 323 325 326 326 326
182 190 196 204 192 176 168 168 174 165 159 170 167 167 162 152 157 154 157 164 164 164 163 163 167 164 155 129 79 71 113 128 105 77 353 18 144 171 187 189 181 191 208 212 215 211 208 208 209 212 210 207 206 208 214 217 221 228 235 241 248 256 261 269 271 274 277 277 279 280 284 287 292 298 302 309 313 315 316 318 321 322 321 319 321
186 199 207 209 195 183 178 180 185 177 171 176 172 165 152 142 148 149 154 161 164 164 162 167 169 161 147 115 84 107 120 116 104 74 353 70 139 142 154 175 185 184 207 221 229 226 221 218 219 222 221 222 221 221 226 229 233 238 243 247 249 254 259 265 268 271 274 276 279 282 286 290 296 300 303 307 310 314 313 315 317 315 314 314 317
193 203 207 203 197 194 192 193 196 187 178 175 176 171 155 143 145 151 156 162 171 170 167 174 176 170 152 105 75 120 116 108 96 59 16 119 146 135 136 143 153 122 157 217 238 243 241 233 228 228 229 232 231 234 239 240 243 244 248 252 255 260 261 264 268 272 276 278 283 287 290 294 296 300 302 303 306 311 310 311 312 311 312 314 317
205 206 205 203 202 207 205 204 205 198 186 179 187 180 156 145 145 149 152 156 166 170 173 175 170 173 172 134 102 103 103 101 81 45 38 127 147 140 131 123 118 85 78 151 224 241 244 245 242 235 235 239 236 239 247 251 253 250 250 254 259 264 265 269 270 274 278 281 285 287 289 292 294 294 295 298 302 305 305 306 310 311 314 316 318
213 216 217 214 210 215 216 213 210 205 196 187 192 188 159 147 146 147 151 150 144 148 162 167 155 156 159 137 115 103 94 91 69 43 68 122 136 137 123 106 92 75 66 65 199 240 238 241 246 243 238 242 242 244 247 254 259 257 257 258 262 265 265 271 274 274 275 279 283 283 286 289 291 292 294 297 300 301 302 306 310 312 315 316 318
217 222 226 225 219 221 221 217 212 206 201 192 194 195 178 159 152 150 151 146 137 140 152 159 151 144 138 122 111 106 91 73 57 66 101 118 121 127 115 103 100 90 76 48 8 287 254 241 245 247 246 247 248 250 252 256 262 264 266 266 269 272 272 276 278 278 277 278 280 280 282 285 287 291 294 297 298 300 304 308 310 312 313 316 319
223 224 225 225 222 223 221 218 214 212 210 202 203 209 198 177 165 161 156 152 151 155 162 164 157 162 158 126 106 98 75 58 67 102 121 126 118 118 108 93 101 107 101 68 15 324 290 260 248 249 255 258 257 255 255 260 267 271 275 274 273 275 276 277 276 277 281 283 284 285 284 286 288 290 293 295 297 301 307 309 309 312 317 321 325
228 226 224 222 222 224 223 221 222 224 225 217 214 217 208 193 184 176 166 168 176 179 180 178 171 170 170 153 126 104 73 59 101 124 126 129 117 104 89 73 72 70 63 85 91 343 333 286 257 256 262 267 266 259 258 261 266 271 275 276 275 274 275 275 275 278 280 279 281 285 286 288 289 290 294 299 302 306 310 312 315 322 328 333 337
231 229 225 222 221 224 224 224 228 233 234 226 218 217 213 202 190 190 187 184 190 196 196 194 196 182 163 157 148 127 101 85 121 135 129 129 120 102 78 54 39 18 4 359 329 294 319 304 262 266 267 272 271 262 258 261 266 270 271 272 272 271 271 272 275 278 276 275 278 284 286 290 293 293 298 303 307 311 316 326 332 336 341 345 346
232 229 226 224 222 224 226 226 231 233 230 226 222 218 216 210 196 198 204 197 195 203 207 201 205 197 174 163 162 159 155 140 145 152 149 148 139 124 90 49 21 14 17 22 9 332 320 329 282 273 272 275 273 262 260 265 266 266 264 265 267 267 266 266 269 272 274 276 279 281 286 291 294 294 295 298 304 315 325 332 337 341 349 352 351
231 230 227 225 225 227 229 228 230 231 229 228 229 224 220 217 206 202 205 202 198 201 204 196 196 194 179 174 178 183 192 191 191 182 173 176 180 188 198 197 328 18 40 52 40 18 9 360 331 294 278 273 271 265 267 270 265 261 265 270 271 270 267 263 265 267 271 275 275 279 285 284 282 284 288 296 303 311 319 325 336 348 353 356 360
229 231 230 228 228 229 230 231 231 231 231 231 231 230 231 224 211 205 204 203 201 201 199 195 204 207 191 182 183 196 210 204 196 204 201 198 204 225 238 229 251 330 13 27 35 47 40 17 350 324 295 279 272 265 263 263 262 265 270 276 280 280 276 272 270 266 266 267 265 265 268 264 265 274 280 285 292 299 304 320 341 353 357 357 358
227 228 229 230 231 230 231 233 233 233 231 232 231 231 236 230 218 213 209 207 205 205 204 202 210 225 219 208 192 202 223 215 198 212 219 217 220 232 236 239 261 289 313 334 6 76 59 33 5 342 318 291 279 273 267 265 269 273 276 281 286 286 283 282 280 272 265 260 255 252 252 253 255 259 260 259 262 257 244 262 313 337 348 348 347
226 227 227 230 232 232 232 232 235 236 232 230 229 229 233 231 224 220 213 212 210 207 209 210 209 218 230 229 218 225 240 223 206 209 217 219 225 233 234 237 257 280 303 323 332 203 47 21 7 357 339 296 279 274 272 274 276 276 279 283 286 286 284 284 280 272 267 259 252 246 239 235 231 227 223 214 207 206 218 244 273 307 329 334 343
227 227 227 231 233 233 232 231 235 238 236 231 227 230 234 233 231 225 217 216 219 216 214 216 218 216 221 223 225 244 257 233 215 210 213 215 218 227 231 230 245 272 301 323 336 273 263 312 348 5 6 331 294 281 268 269 270 265 269 277 280 281 281 280 277 268 260 245 232 223 215 212 206 200 198 198 204 215 226 236 251 270 307 328 337
229 231 230 231 234 233 231 231 234 236 238 234 228 229 232 234 233 228 221 218 222 226 221 218 221 221 217 215 223 242 253 248 235 223 218 216 214 222 226 226 239 259 273 280 297 290 272 283 300 331 359 2 351 342 294 259 255 253 257 268 277 282 282 278 275 262 240 219 209 206 204 202 200 200 202 209 216 220 223 227 235 257 289 314 328
231 232 231 231 233 233 233 233 233 235 237 236 231 228 229 233 235 233 228 223 223 225 224 224 226 226 224 223 227 236 243 248 240 230 228 226 226 229 228 227 237 250 255 255 259 264 270 276 276 283 312 335 337 345 341 270 249 254 259 270 286 287 282 274 266 252 231 213 206 205 204 204 206 209 212 217 221 221 225 229 240 267 293 311 326
230 230 228 229 231 232 234 234 234 234 235 236 233 229 229 232 235 236 232 228 227 226 226 230 232 228 230 235 237 235 236 239 233 225 227 233 242 249 245 239 245 255 256 256 261 264 269 273 274 276 284 303 315 331 349 338 263 262 266 274 289 288 281 274 261 247 230 216 213 212 213 215 216 217 219 222 228 230 230 239 254 275 292 303 313
230 230 227 226 228 231 233 234 234 235 235 235 233 231 231 232 235 236 233 231 230 230 230 232 232 227 227 235 242 239 237 241 240 233 232 237 244 254 256 251 255 262 263 268 272 269 268 270 276 279 279 291 304 313 326 331 301 273 271 274 285 289 287 284 269 249 232 221 220 220 221 224 223 223 226 227 230 234 238 251 267 279 290 300 310
231 232 230 227 228 230 231 232 233 234 235 236 235 233 233 234 235 235 235 235 234 235 235 235 235 232 229 234 241 242 238 240 247 247 246 249 251 257 261 255 255 261 264 267 269 270 269 271 278 282 280 284 293 296 296 301 298 290 292 293 298 300 292 286 279 262 241 229 224 224 226 229 231 231 231 231 233 237 248 261 274 286 296 305 313
230 232 233 231 231 231 231 232 232 235 237 237 237 236 235 235 237 238 238 238 238 240 240 240 241 241 240 241 244 245 237 234 242 250 252 253 253 256 260 256 257 263 266 267 270 271 269 271 276 278 275 275 279 279 279 285 292 295 301 304 304 304 297 285 278 268 253 241 234 229 229 231 233 235 235 236 238 243 255 267 280 291 299 305 310
232 233 235 235 235 233 232 232 233 236 239 239 238 237 236 237 239 241 242 242 242 243 242 242 244 246 246 246 247 249 241 233 238 247 252 254 253 251 249 250 256 259 262 266 269 268 267 271 277 278 274 269 265 264 266 272 281 288 293 298 299 299 295 286 277 271 263 256 248 242 240 238 237 239 239 240 244 250 261 272 283 291 298 303 306
236 236 237 239 237 234 232 231 232 235 239 240 239 237 236 238 240 242 243 244 243 244 242 241 243 246 248 249 250 249 244 239 240 245 251 254 253 246 239 243 253 255 258 262 265 267 270 272 273 274 273 268 261 258 261 268 274 280 283 286 290 292 291 288 280 274 270 264 259 253 250 249 247 246 246 247 251 258 266 275 282 289 295 299 301
238 238 239 239 238 234 231 231 231 232 236 239 239 238 237 238 240 242 243 243 243 244 243 242 243 246 249 252 252 249 247 247 248 250 251 248 244 239 235 239 251 259 262 263 268 273 276 273 269 270 270 267 263 260 261 264 268 273 276 279 284 286 289 290 286 280 273 267 263 260 257 257 257 256 255 256 259 264 269 275 281 285 290 294 297
239 239 238 239 239 235 232 232 231 230 233 236 238 238 238 239 241 242 243 244 245 246 245 243 243 245 249 252 254 252 250 250 251 252 251 245 238 234 236 241 250 260 265 268 274 280 282 278 274 273 271 267 265 263 261 264 268 271 273 277 281 283 287 289 289 285 277 269 264 261 260 261 261 261 261 262 265 267 271 274 279 283 287 290 293
239 239 237 237 239 237 234 233 232 231 232 234 237 238 238 239 241 243 245 245 246 246 246 246 244 244 247 251 254 255 253 252 251 250 248 244 238 234 235 241 248 255 261 270 278 283 283 279 275 276 276 274 271 269 266 268 272 272 273 276 279 282 284 286 287 286 280 274 268 264 263 263 263 264 263 265 266 269 272 275 278 281 283 287 291
239 239 237 236 238 239 238 236 233 232 232 233 236 237 238 240 241 243 245 246 247 247 246 247 247 246 248 249 253 256 255 255 252 248 246 244 240 236 237 240 245 249 255 266 275 280 281 278 278 280 280 280 277 273 270 270 271 273 274 275 278 280 281 281 284 284 281 276 272 269 267 265 265 265 265 266 268 270 272 274 277 279 280 285 290
238 239 238 237 239 240 241 239 234 231 232 232 234 237 239 241 242 244 246 247 249 251 250 249 248 248 249 249 251 255 256 257 254 251 248 245 242 241 241 242 244 248 252 258 267 274 278 276 276 276 276 277 275 272 272 271 271 272 273 274 276 276 276 277 280 282 280 276 271 269 267 266 266 267 267 268 270 271 272 273 274 275 277 282 288
238 239 239 238 239 241 242 242 239 235 235 235 236 239 241 243 244 246 248 249 250 253 254 254 252 250 250 250 251 253 255 256 255 254 252 249 247 244 244 246 247 248 250 254 261 270 277 274 272 273 273 272 272 273 274 274 273 272 273 274 274 273 272 274 276 277 277 275 271 267 265 264 264 266 267 268 269 270 271 271 271 271 274 280 285
239 240 240 240 241 242 243 244 243 241 240 240 240 241 242 244 245 247 250 251 252 254 255 256 256 255 254 253 253 253 253 255 256 255 254 253 251 248 247 249 251 251 252 254 258 265 271 273 273 274 274 272 273 274 274 275 276 275 274 273 273 273 273 273 273 273 273 272 270 267 264 263 263 263 264 266 266 268 269 269 268 269 272 277 283
240 241 241 241 242 243 243 245 246 245 243 242 242 243 244 245 246 248 250 252 253 254 255 257 258 259 259 258 258 256 255 257 257 257 257 256 255 253 251 251 253 255 255 255 258 262 268 273 273 273 273 273 275 276 277 277 277 275 273 272 272 271 270 270 270 270 270 270 268 266 265 263 262 262 262 263 264 267 268 269 268 268 271 276 281
239 240 241 242 243 243 244 245 247 246 245 244 245 245 245 246 247 249 251 252 254 254 254 256 258 259 261 261 262 261 260 260 260 260 260 259 258 257 257 257 257 258 258 257 258 261 266 270 272 273 273 273 274 276 277 277 275 274 273 273 272 271 269 268 269 269 268 268 268 266 264 262 262 262 262 262 263 265 268 268 268 268 272 276 280
237 238 240 242 243 243 244 245 246 247 247 248 250 249 249 249 250 252 253 253 254 254 254 256 257 258 260 262 264 265 264 264 263 262 262 262 261 260 260 261 262 262 262 260 260 262 264 268 272 274 274 274 273 273 274 274 274 274 273 273 273 272 270 268 267 267 266 265 265 263 262 261 260 260 261 261 262 263 265 266 267 268 270 274 278
237 238 239 241 242 243 244 246 247 248 249 251 253 253 253 253 254 254 255 255 254 255 255 256 257 258 259 261 263 263 264 265 264 263 263 264 264 264 263 263 264 265 264 263 263 263 264 267 271 273 273 274 273 273 272 273 273 273 273 273 272 270 269 267 266 265 264 263 262 262 261 260 259 259 259 260 262 263 264 264 265 266 267 270 275
238 239 240 241 242 243 245 247 248 249 251 253 254 255 256 256 257 256 256 256 256 256 257 257 258 258 259 261 262 261 262 263 265 265 266 266 266 267 267 266 266 265 265 266 265 264 265 267 269 271 273 273 274 274 274 273 272 270 269 269 269 268 267 266 266 264 263 263 262 261 260 260 260 258 257 258 258 260 261 262 262 262 263 267 271
240 240 241 242 243 244 245 247 248 250 252 254 255 256 257 258 258 258 258 258 258 258 259 259 259 260 260 261 261 262 262 263 265 266 267 268 268 269 269 269 268 267 266 267 266 265 266 267 268 271 273 273 273 273 274 273 270 269 269 268 269 271 270 268 268 267 265 263 262 261 259 259 259 258 257 256 256 257 258 259 259 259 261 263 266
241 241 242 243 244 245 247 247 249 251 252 254 255 256 258 258 259 260 261 261 261 261 261 262 262 261 261 261 261 262 264 265 266 267 267 268 269 269 270 270 271 270 270 269 268 267 267 268 269 271 272 272 273 273 273 272 271 271 272 270 270 272 272 270 270 269 267 265 264 262 259 257 257 259 258 257 257 257 258 258 258 258 260 261 264
241 242 242 243 244 246 247 248 250 251 252 254 255 256 258 259 260 262 263 263 264 264 265 265 265 264 264 264 265 266 267 268 268 268 268 269 269 270 270 271 271 272 272 272 271 270 270 270 271 272 273 273 275 276 276 277 277 276 274 271 271 273 272 269 270 270 269 266 265 263 260 257 256 257 257 257 257 256 256 256 257 258 259 260 262
242 242 243 244 245 245 247 248 250 251 252 253 255 257 259 260 261 263 264 265 266 266 267 267 268 268 269 269 271 271 272 272 272 272 272 272 272 272 272 273 273 273 273 274 274 273 273 273 274 274 273 275 277 279 279 280 280 278 277 275 274 273 271 269 270 272 271 269 267 266 264 261 258 257 257 257 257 255 254 254 255 256 257 259 261
243 244 243 244 245 245 247 248 249 251 252 253 255 257 259 261 262 263 264 266 267 267 268 269 271 273 274 274 275 276 276 276 277 277 278 277 277 276 276 275 275 274 274 274 274 274 274 275 276 275 274 276 279 279 279 281 282 281 280 278 276 275 274 272 271 273 276 275 271 268 268 266 263 260 259 258 258 257 255 254 253 253 254 256 258
245 245 245 246 246 246 247 249 249 251 252 253 255 256 259 261 262 264 265 265 267 268 269 271 273 275 276 277 278 278 280 280 280 281 281 282 282 282 281 280 278 276 275 275 275 275 274 275 275 275 276 277 278 280 281 282 282 281 279 278 278 277 275 274 276 279 280 278 273 271 272 271 267 263 262 261 260 259 256 253 252 251 252 254 255
246 247 247 247 247 248 248 250 251 252 253 254 255 257 259 261 263 264 265 266 267 268 270 271 273 274 276 277 278 280 281 281 281 282 283 284 285 285 285 283 282 281 280 278 277 276 275 274 274 276 279 278 279 282 284 283 281 280 280 280 281 281 280 281 283 282 278 275 274 273 274 274 271 267 265 263 261 260 258 254 251 249 249 251 252
248 249 249 250 250 250 250 251 253 254 254 254 256 257 259 261 263 265 266 267 267 269 270 271 272 274 275 276 278 280 281 281 282 283 284 285 285 286 286 286 287 287 285 283 282 281 279 277 277 279 281 280 280 283 283 282 281 281 282 282 282 281 281 281 280 276 272 272 271 269 270 274 274 271 269 268 264 261 258 253 250 248 248 249 250
250 250 251 251 251 252 253 254 254 255 255 255 257 258 260 262 264 265 266 267 269 269 271 272 272 274 275 276 277 279 280 281 282 283 285 285 285 285 286 287 289 289 288 288 288 287 285 283 283 283 284 283 282 282 282 280 279 280 280 279 277 275 273 271 272 271 269 268 268 266 266 270 271 270 271 270 265 260 257 253 248 246 246 246 247
249 250 250 252 253 253 255 255 256 257 257 258 259 260 262 263 264 266 267 268 270 271 272 273 273 274 275 276 277 278 279 280 281 283 284 283 282 282 284 286 288 287 288 288 289 290 290 288 287 286 287 287 284 283 282 279 278 278 274 271 271 269 266 264 266 266 264 265 269 267 263 263 265 265 266 266 263 259 255 250 246 243 243 244 245
250 251 253 254 255 256 256 256 258 260 261 262 263 263 265 266 266 267 268 270 271 272 273 274 275 276 277 277 278 278 279 281 282 283 282 280 279 279 280 284 285 285 286 287 288 290 291 289 288 287 287 288 286 284 283 279 277 275 269 267 269 266 262 261 263 262 260 265 269 265 257 257 261 261 260 260 259 257 253 247 243 240 238 241 242
253 254 254 255 255 256 257 258 260 262 263 265 266 266 268 267 268 269 269 270 271 272 274 276 277 279 280 281 281 281 282 284 284 284 283 280 279 279 278 281 283 284 287 288 287 288 288 287 287 287 287 288 286 285 285 283 280 275 270 270 270 265 260 261 262 259 255 261 269 265 253 253 258 258 257 254 251 252 252 246 241 237 235 237 238